Temperature
16 16 17 17 17 17 16 16 16 16 16 15 15 15 15 15 15 15 15 15 15 14 14 14 14 14 14 13 13 13 13 13 12 12 12 12 12 12 12 12 11 12 12
15 15 16 16 16 16 16 16 16 16 16 15 15 15 15 15 15 15 15 14 14 14 14 14 14 13 13 13 13 13 12 12 12 12 12 11 11 12 12 12 11 11 11
15 15 15 15 15 15 15 15 15 15 15 15 15 15 14 14 14 14 14 14 14 14 13 13 13 13 13 13 13 12 12 12 12 12 11 11 11 12 12 12 12 12 11
14 14 14 14 14 14 14 14 14 14 14 14 14 14 14 14 14 14 14 14 13 13 13 13 13 13 13 12 12 12 12 12 11 11 11 11 11 11 11 11 11 11 11
13 13 13 13 13 13 13 13 13 13 13 13 13 13 13 13 13 13 13 13 13 13 13 13 12 12 12 12 12 12 12 11 11 11 11 11 10 10 10 10 10 10 11
12 12 12 12 12 12 12 12 12 12 12 12 12 12 12 12 12 12 12 12 12 12 12 12 12 12 12 12 11 11 11 11 11 11 10 10 10 10 10 9 9 9 10
11 11 11 11 11 11 11 11 11 11 11 11 11 11 11 11 11 11 11 11 11 11 11 11 11 11 11 11 11 11 11 11 10 10 10 10 9 9 9 9 9 9 9
11 11 11 11 10 10 10 10 10 10 10 10 10 10 10 10 10 10 10 10 10 10 10 10 10 10 10 10 10 10 10 10 10 10 10 9 9 9 9 8 8 8 8
11 11 10 10 10 10 9 9 9 9 9 9 9 9 9 9 9 9 9 9 9 9 9 9 9 10 10 9 9 9 9 9 9 9 9 9 9 8 8 8 8 7 7
10 10 10 10 9 9 9 8 8 8 8 8 8 8 8 8 8 8 8 8 8 8 8 8 8 9 9 9 9 8 8 8 8 8 8 8 8 7 7 7 7 7 6
10 10 10 9 9 8 8 7 7 7 7 7 7 7 7 7 7 7 7 7 7 7 7 7 7 7 8 8 8 8 8 8 8 7 7 7 7 7 6 6 6 6 6
10 10 9 9 8 8 7 7 7 6 6 6 6 6 6 6 6 6 6 6 6 6 6 7 7 7 7 7 7 7 7 7 7 6 6 6 6 6 6 5 5 5 5
10 9 9 8 8 7 7 6 6 6 6 5 6 5 5 5 5 5 5 5 5 5 6 6 6 6 6 6 6 6 6 5 5 5 5 5 5 5 4 4 4 4 3
10 9 9 8 7 7 6 6 5 5 5 5 5 5 5 5 5 5 5 5 5 5 5 5 5 5 5 5 4 4 4 4 4 4 3 3 3 3 3 2 2 2 2
9 9 9 8 7 6 6 5 5 4 4 4 4 4 4 4 4 4 4 4 4 4 3 3 3 3 4 3 3 3 3 3 2 2 2 2 1 1 1 1 1 1 1
10 9 8 8 7 6 5 5 4 4 4 4 4 3 3 3 3 3 3 3 3 2 2 2 3 3 3 2 2 2 2 1 1 1 0 0 -0 -0 -1 -1 -1 -1 -1
10 9 9 8 7 6 5 4 4 3 3 3 3 2 2 2 2 2 2 2 2 1 2 2 2 2 1 1 1 1 1 0 0 -0 -1 -1 -1 -1 -1 -1 -2 -2 -2
10 9 8 7 6 5 4 3 3 3 2 2 2 2 2 2 2 1 1 1 1 1 1 1 1 1 1 1 0 0 -0 -0 -1 -1 -1 -1 -2 -2 -2 -2 -3 -3 -3
10 9 8 7 6 5 4 3 2 2 2 2 2 2 2 1 1 1 1 1 1 1 1 0 0 0 0 -0 -0 -1 -1 -1 -2 -2 -2 -3 -3 -4 -4 -4 -4 -4 -5
9 8 7 6 5 4 4 3 2 2 2 2 2 1 1 1 1 1 1 1 1 0 0 0 -0 -0 -1 -1 -1 -1 -2 -2 -3 -3 -4 -4 -4 -5 -6 -5 -5 -5 -5
7 7 6 6 5 4 3 3 2 2 2 2 1 1 1 1 1 1 1 0 0 0 -0 -0 -0 -1 -1 -2 -2 -2 -3 -3 -3 -4 -4 -5 -5 -6 -6 -6 -6 -6 -6
7 6 6 5 4 4 3 3 3 2 2 2 1 1 1 1 1 1 1 0 0 -0 -0 -0 -1 -1 -2 -2 -3 -3 -4 -4 -4 -5 -5 -5 -6 -6 -6 -6 -7 -7 -7
6 6 5 5 4 4 4 3 3 2 2 2 1 1 1 1 1 1 0 0 0 -0 -0 -1 -1 -1 -2 -2 -3 -4 -4 -5 -5 -5 -6 -6 -6 -6 -7 -7 -7 -7 -7
6 5 5 5 4 4 4 3 3 2 2 2 1 1 1 1 1 0 0 -0 -0 -0 -1 -1 -1 -1 -2 -2 -3 -3 -4 -5 -5 -6 -6 -6 -7 -7 -7 -7 -7 -7 -7
6 5 5 5 4 4 4 3 2 2 2 2 1 1 1 1 0 0 -0 -0 -0 -1 -1 -1 -1 -2 -2 -3 -3 -4 -4 -5 -6 -6 -6 -7 -7 -7 -7 -7 -8 -8 -8
6 5 5 5 4 4 4 3 3 2 2 2 1 1 1 1 0 0 -0 -0 -1 -1 -1 -1 -1 -2 -2 -3 -3 -4 -5 -5 -6 -7 -7 -7 -7 -7 -7 -8 -8 -8 -8
Wind_Speed
3 3 4 5 6 6 6 5 4 2 1 1 1 2 4 4 4 5 8 9 10 11 10 6 6 6 8 9 9 8 8 8 4 3 4 4 5 7 7 6 7 11 17
5 4 5 6 7 6 6 6 5 4 3 1 1 1 2 3 4 3 5 7 8 9 8 7 7 7 7 8 9 8 6 5 5 5 3 4 4 6 8 7 8 9 11
9 7 6 6 6 6 5 5 5 4 4 2 1 1 1 2 2 2 3 5 7 8 8 8 6 7 8 8 9 9 9 8 7 6 6 5 7 5 4 7 8 8 8
8 8 7 6 6 4 4 5 5 5 5 4 3 2 1 1 2 3 3 5 6 6 7 7 7 7 7 8 9 9 8 9 8 6 7 6 4 5 4 3 5 7 8
10 9 8 7 6 5 5 5 6 6 6 6 5 3 2 1 2 3 4 4 4 5 6 6 5 5 6 7 8 8 8 8 9 7 5 7 6 5 5 6 4 3 4
9 8 7 7 6 5 5 5 6 6 6 6 6 5 4 3 4 4 4 4 4 4 6 6 4 4 5 6 7 7 8 8 9 8 7 6 5 6 7 10 7 5 3
10 9 8 7 6 6 5 5 5 5 6 6 6 5 4 4 3 3 4 4 4 4 7 6 5 4 4 5 5 5 6 6 7 8 8 8 8 5 5 7 7 5 2
9 9 8 7 6 6 5 5 5 5 5 5 5 5 5 4 3 4 4 4 4 4 6 6 6 6 6 5 5 4 4 4 5 6 6 6 6 6 6 5 5 5 3
9 8 8 7 6 6 4 4 5 5 5 5 5 6 6 6 5 5 5 4 5 5 7 7 7 7 7 6 5 4 4 4 3 3 3 3 2 2 2 3 4 5 5
8 8 7 7 6 5 5 5 5 5 4 5 5 5 6 6 6 6 7 7 7 7 7 8 8 8 8 8 6 5 5 5 5 4 4 3 3 2 2 1 1 2 4
9 8 7 6 6 5 5 5 5 5 5 5 5 6 6 6 7 7 7 7 7 8 8 8 8 9 9 9 8 8 8 7 7 7 6 6 5 4 4 3 2 2 0
8 8 8 7 6 6 5 5 4 5 4 5 6 6 6 6 7 7 7 7 7 7 8 8 9 10 10 10 10 9 9 9 9 8 8 8 6 7 5 5 4 3 3
8 7 7 7 6 6 5 5 4 4 4 5 6 6 6 6 7 7 7 7 7 8 8 9 10 10 10 10 10 10 10 10 10 9 9 8 7 7 6 6 5 4 4
9 8 7 7 6 6 6 5 4 4 5 5 5 6 6 6 6 6 7 7 8 8 9 9 9 9 9 10 9 9 10 10 10 9 9 8 7 6 6 5 5 5 5
9 9 9 7 7 6 6 5 5 5 5 5 5 5 5 6 6 7 7 7 8 9 8 8 9 9 8 9 9 9 9 9 9 9 9 9 10 10 7 5 5 5 4
10 10 9 9 8 8 7 6 5 5 5 6 5 5 5 5 6 6 7 7 8 8 8 9 9 9 9 13 14 10 8 8 8 8 8 8 10 12 12 11 9 7 4
11 11 10 10 9 8 8 7 6 6 6 6 5 5 5 5 5 6 6 7 6 7 8 8 8 8 9 13 13 13 8 7 7 6 6 6 7 8 6 8 10 9 9
10 10 9 9 8 7 7 7 7 6 6 6 5 5 5 5 5 5 5 5 4 5 5 6 6 6 8 11 11 11 7 6 6 5 5 5 5 4 5 5 6 6 5
8 8 9 8 8 9 9 8 7 7 6 6 6 6 6 6 5 5 4 3 4 4 3 3 4 5 5 9 10 8 4 5 5 5 4 3 4 7 7 5 4 5 5
7 8 8 7 9 9 9 9 8 7 7 6 6 6 6 6 5 5 4 3 3 3 2 2 2 3 4 7 8 7 3 3 4 4 5 7 6 7 7 2 2 3 4
7 8 9 8 8 9 9 9 8 8 7 7 6 6 6 6 5 4 3 3 3 3 2 2 1 2 2 4 6 5 2 1 2 2 3 4 8 8 8 5 1 5 3
6 8 8 7 7 9 10 9 8 7 7 7 7 6 6 5 5 5 4 3 4 3 2 2 0 2 3 3 4 5 4 2 1 2 3 5 9 9 8 6 6 7 4
8 7 7 7 7 8 9 10 8 8 8 8 7 6 6 5 5 5 4 3 3 3 2 2 2 2 2 3 4 5 6 6 1 3 6 8 9 8 5 7 7 4 2
8 8 8 9 9 8 9 9 9 9 9 8 8 7 6 5 4 4 4 4 4 4 3 3 3 2 2 3 3 3 3 4 4 4 5 7 7 5 5 5 4 3 3
8 9 10 10 10 9 9 9 10 10 9 8 8 7 6 6 5 4 4 4 4 5 5 4 4 3 3 4 5 3 3 3 4 3 1 2 3 3 3 3 3 3 3
8 9 10 10 9 10 10 10 11 11 10 8 8 6 6 5 5 4 2 4 5 5 6 6 5 5 6 7 7 7 8 9 9 4 1 3 3 4 4 4 4 3 4
Wind_Direction
164 113 93 94 88 69 66 61 62 29 48 120 201 224 240 248 249 245 244 240 238 235 228 232 230 222 226 228 224 221 223 228 208 214 253 263 243 236 230 216 213 217 217
137 107 85 73 75 71 62 56 49 43 46 79 194 215 244 254 251 263 264 258 254 249 240 234 238 231 232 235 230 221 225 225 189 192 214 267 282 254 234 219 220 221 217
158 139 110 94 81 68 54 48 36 37 34 26 45 26 24 351 335 303 285 277 269 263 253 246 242 241 232 236 233 223 222 230 215 199 192 210 236 255 262 234 228 220 215
151 142 130 114 101 83 59 48 40 40 30 32 51 67 96 266 276 289 295 305 301 287 275 263 255 251 246 243 242 234 229 229 231 219 221 222 203 213 265 268 245 231 225
154 147 141 129 111 87 65 49 48 41 32 37 45 56 40 311 307 322 326 326 324 322 312 289 273 264 259 256 252 247 238 232 234 224 215 230 231 223 234 262 262 259 246
148 139 129 118 102 80 64 54 54 41 31 36 40 48 39 13 5 355 347 339 336 340 346 333 310 285 276 271 265 256 250 244 242 238 222 213 214 218 224 243 246 244 251
148 143 135 124 112 91 72 61 63 45 31 36 37 34 32 31 23 358 352 352 353 351 348 350 342 326 309 297 285 275 266 256 251 246 240 233 234 227 226 240 247 239 240
154 151 146 136 124 108 89 76 72 55 37 39 38 34 30 31 26 18 17 14 3 356 354 356 357 354 347 335 318 300 289 281 267 261 255 248 244 235 227 227 233 245 247
159 153 145 138 133 120 105 98 87 65 42 39 47 41 33 36 31 26 26 23 12 8 7 7 8 4 3 358 353 351 342 333 320 305 289 272 278 271 248 224 213 223 241
156 152 148 144 137 127 111 96 90 78 56 49 48 56 40 37 36 36 33 29 21 18 17 18 17 16 14 12 17 16 11 25 20 16 24 24 13 17 5 330 259 223 226
165 161 156 148 137 124 114 104 92 80 66 61 59 56 44 41 42 42 36 31 27 25 28 25 26 26 23 21 28 32 30 38 37 35 41 40 34 38 30 29 30 20 86
165 161 156 148 140 133 123 113 100 88 80 75 68 60 51 48 48 43 37 36 35 32 33 34 36 34 31 30 34 37 39 43 44 41 46 42 43 46 38 39 38 31 30
162 160 159 158 153 145 135 123 110 101 92 85 76 66 58 56 52 47 43 43 43 42 42 44 44 40 38 38 39 43 47 50 49 47 50 46 50 49 42 42 40 31 31
173 172 171 167 161 152 143 133 120 113 104 93 85 75 65 62 59 54 51 52 51 51 49 49 48 48 47 45 45 49 52 53 51 48 47 47 52 55 48 45 39 41 44
186 184 178 172 163 153 145 138 128 119 114 105 95 87 79 73 67 61 58 57 56 55 49 48 48 48 52 52 52 51 55 54 52 46 41 44 52 59 63 62 48 44 46
198 190 179 173 170 164 156 146 141 134 125 116 110 103 94 84 77 71 67 65 61 55 52 50 48 49 56 61 64 65 54 52 49 43 35 36 41 44 45 53 54 51 53
198 188 182 178 173 168 159 155 150 137 129 125 122 115 108 99 90 87 80 73 67 60 56 50 48 48 56 64 67 69 64 55 48 43 37 35 30 39 36 38 37 32 37
190 183 173 166 160 157 152 147 144 141 139 138 135 127 119 113 105 99 90 81 75 71 64 53 45 40 47 61 66 68 57 49 40 37 39 35 7 11 47 42 27 16 8
177 169 162 156 154 155 153 147 146 147 148 150 148 142 139 133 127 120 110 102 99 89 77 66 54 41 27 55 64 68 50 39 22 12 15 21 359 5 26 43 21 5 350
142 145 145 145 155 159 154 152 157 159 163 161 154 148 148 149 147 143 135 129 124 119 110 86 54 42 16 46 59 69 60 38 14 4 360 358 353 352 358 37 13 334 312
138 143 148 155 164 161 157 161 166 173 166 155 151 151 152 154 152 146 146 146 138 127 124 114 47 14 16 25 34 48 94 55 12 1 342 327 335 336 333 337 298 289 305
147 151 156 162 164 163 164 170 179 170 157 155 157 160 160 161 154 149 151 151 149 144 151 147 180 331 340 351 356 10 15 38 98 319 296 299 320 328 331 331 309 315 352
167 165 165 168 175 176 175 181 180 165 161 162 166 167 165 163 158 161 165 162 162 167 183 190 220 268 300 328 354 1 357 357 347 294 316 324 328 334 334 322 325 349 359
181 175 174 182 190 188 186 184 172 169 167 172 175 172 170 170 168 172 174 171 180 183 191 204 222 244 263 271 279 291 307 321 318 307 317 332 339 345 336 334 343 339 295
188 185 192 198 198 190 191 182 174 172 176 179 179 178 179 175 177 183 193 189 202 194 195 206 209 216 246 258 276 285 261 263 268 290 288 332 332 335 329 322 316 313 317
191 195 200 202 198 192 194 187 181 179 179 183 185 183 179 178 177 177 196 223 212 220 218 210 211 232 253 274 291 302 305 309 312 323 316 304 303 300 300 303 305 302 297
Height
1521 1523 1525 1526 1528 1529 1530 1531 1532 1533 1534 1534 1535 1536 1536 1537 1538 1539 1539 1540 1540 1540 1540 1540 1540 1540 1540 1540 1540 1540 1540 1539 1540 1539 1538 1537 1538 1537 1537 1537 1537 1537 1537
1518 1520 1521 1523 1524 1526 1527 1528 1529 1529 1530 1530 1531 1531 1532 1532 1533 1534 1534 1534 1535 1535 1535 1534 1534 1534 1534 1534 1534 1534 1533 1533 1534 1533 1532 1531 1530 1529 1530 1530 1530 1530 1531
1514 1517 1518 1520 1521 1523 1524 1524 1525 1525 1525 1526 1526 1527 1527 1527 1528 1528 1528 1529 1529 1529 1529 1528 1528 1528 1528 1527 1527 1528 1527 1527 1527 1527 1527 1525 1521 1522 1522 1522 1523 1523 1523
1512 1514 1516 1517 1519 1520 1520 1520 1521 1521 1521 1521 1522 1522 1522 1522 1523 1523 1523 1523 1523 1523 1522 1522 1522 1521 1521 1521 1521 1521 1521 1520 1520 1520 1519 1519 1518 1518 1515 1515 1515 1516 1515
1509 1511 1513 1515 1516 1517 1517 1517 1517 1518 1518 1517 1517 1517 1517 1517 1517 1517 1517 1517 1517 1516 1516 1515 1515 1515 1514 1514 1514 1514 1514 1513 1513 1513 1512 1512 1511 1511 1510 1508 1508 1508 1508
1506 1509 1511 1512 1513 1514 1514 1514 1514 1514 1514 1514 1514 1513 1513 1513 1512 1512 1511 1511 1511 1510 1510 1509 1508 1508 1508 1507 1507 1507 1507 1507 1506 1506 1506 1505 1505 1504 1503 1501 1500 1500 1501
1504 1506 1508 1510 1511 1511 1512 1512 1512 1511 1511 1510 1510 1509 1509 1508 1508 1507 1506 1506 1505 1505 1504 1503 1503 1502 1501 1501 1501 1500 1500 1500 1499 1499 1499 1498 1498 1498 1497 1496 1494 1493 1493
1501 1504 1506 1508 1509 1509 1509 1509 1509 1508 1508 1507 1506 1506 1505 1504 1503 1503 1502 1501 1501 1500 1499 1498 1497 1497 1496 1495 1495 1494 1493 1493 1493 1492 1492 1492 1491 1491 1491 1490 1489 1487 1486
1499 1502 1504 1506 1506 1507 1507 1506 1506 1505 1505 1504 1503 1502 1501 1501 1500 1499 1498 1497 1496 1496 1495 1494 1493 1492 1491 1490 1489 1488 1487 1487 1487 1486 1486 1485 1485 1485 1484 1484 1483 1483 1480
1498 1500 1502 1504 1504 1504 1504 1504 1503 1502 1502 1501 1500 1499 1499 1498 1497 1496 1495 1494 1493 1492 1491 1490 1488 1487 1486 1485 1484 1483 1482 1481 1481 1480 1480 1479 1479 1478 1478 1478 1477 1476 1476
1496 1498 1500 1501 1502 1502 1501 1501 1500 1500 1499 1498 1498 1497 1496 1495 1494 1493 1492 1491 1490 1489 1487 1486 1485 1484 1482 1481 1480 1479 1478 1477 1476 1475 1475 1474 1474 1473 1473 1472 1472 1471 1471
1494 1497 1498 1499 1499 1499 1499 1498 1498 1497 1497 1496 1495 1494 1493 1493 1492 1491 1490 1489 1488 1486 1485 1483 1482 1481 1479 1478 1477 1475 1474 1473 1472 1472 1471 1470 1470 1469 1469 1468 1468 1467 1466
1492 1494 1495 1496 1496 1496 1496 1495 1495 1495 1494 1494 1493 1492 1492 1491 1490 1489 1488 1487 1486 1484 1483 1482 1480 1478 1477 1476 1474 1473 1472 1471 1470 1469 1468 1468 1467 1466 1466 1465 1465 1464 1463
1490 1491 1492 1493 1493 1493 1493 1493 1492 1492 1492 1492 1491 1491 1490 1489 1488 1488 1487 1486 1485 1483 1482 1481 1479 1478 1476 1475 1474 1472 1471 1470 1469 1468 1467 1466 1465 1465 1464 1463 1462 1462 1461
1487 1488 1489 1489 1490 1490 1490 1490 1490 1490 1490 1490 1490 1489 1489 1488 1487 1487 1486 1485 1484 1483 1482 1481 1479 1478 1476 1475 1474 1473 1471 1470 1469 1468 1467 1466 1465 1464 1463 1463 1462 1461 1460
1483 1484 1485 1486 1486 1487 1487 1488 1488 1488 1488 1488 1488 1488 1488 1487 1487 1487 1486 1485 1484 1483 1482 1481 1480 1478 1477 1476 1475 1473 1472 1471 1470 1468 1467 1466 1465 1464 1463 1462 1461 1460 1460
1479 1480 1481 1482 1483 1484 1485 1485 1486 1486 1486 1487 1487 1487 1487 1487 1487 1486 1486 1486 1485 1484 1483 1482 1481 1479 1478 1477 1475 1474 1473 1471 1470 1469 1467 1466 1464 1463 1462 1461 1460 1459 1458
1475 1476 1478 1479 1480 1481 1482 1483 1484 1484 1485 1485 1486 1486 1486 1487 1486 1486 1486 1486 1485 1485 1484 1483 1481 1480 1479 1477 1476 1474 1473 1471 1470 1468 1467 1465 1464 1462 1460 1459 1458 1457 1456
1472 1473 1475 1476 1477 1478 1479 1480 1481 1482 1483 1484 1485 1485 1486 1486 1486 1486 1486 1486 1486 1485 1484 1483 1482 1481 1479 1477 1476 1474 1473 1471 1469 1467 1466 1464 1463 1461 1459 1457 1456 1455 1454
1469 1470 1472 1473 1474 1476 1477 1478 1479 1480 1482 1483 1484 1484 1485 1486 1486 1486 1486 1486 1485 1485 1484 1483 1482 1480 1479 1477 1475 1474 1472 1470 1468 1466 1464 1463 1461 1459 1457 1456 1454 1453 1452
1466 1467 1469 1470 1472 1473 1474 1476 1477 1479 1480 1481 1482 1483 1484 1485 1485 1486 1486 1485 1485 1484 1483 1482 1481 1480 1478 1477 1475 1473 1471 1469 1466 1465 1463 1461 1459 1457 1456 1454 1452 1451 1449
1464 1465 1466 1468 1470 1471 1472 1474 1475 1477 1478 1480 1481 1482 1483 1484 1484 1485 1485 1484 1484 1483 1482 1481 1480 1479 1477 1476 1474 1471 1469 1467 1465 1463 1461 1459 1457 1455 1454 1452 1450 1449 1447
1462 1463 1464 1466 1467 1469 1470 1472 1473 1475 1477 1478 1479 1481 1482 1482 1483 1483 1483 1483 1483 1482 1481 1480 1479 1477 1476 1474 1472 1470 1467 1465 1463 1461 1458 1456 1455 1453 1451 1450 1448 1447 1445
1460 1461 1462 1463 1464 1466 1468 1469 1471 1473 1475 1476 1477 1479 1480 1480 1481 1481 1481 1481 1481 1480 1479 1478 1477 1475 1473 1472 1469 1467 1465 1463 1461 1458 1456 1454 1452 1451 1449 1447 1446 1445 1443
1457 1458 1458 1460 1461 1463 1465 1467 1468 1470 1472 1474 1475 1476 1477 1478 1479 1479 1479 1479 1479 1478 1477 1476 1475 1473 1471 1469 1467 1465 1462 1460 1458 1455 1453 1452 1450 1448 1447 1445 1443 1442 1440
1454 1454 1455 1456 1458 1460 1461 1463 1465 1467 1469 1471 1472 1473 1475 1476 1476 1477 1477 1477 1476 1476 1474 1473 1472 1470 1469 1466 1464 1462 1460 1457 1455 1453 1450 1449 1447 1445 1443 1441 1440 1439 1437